Location: Fouquenies
(49.4624°N, 2.0492°E)
Time: 00:39:52
(UTC+00:00)

Cosmos 2219 Rocket - Pass Details

Date: 03 February 2023
Orbit: 826 x 848 km, 71.0° (Epoch: 01 April)

Event Time Altitude Azimuth Distance (km) Brightness Sun altitude
Rises 18:04:13 0° 161° (SSE) 3,352 5.2 -12.2°
Reaches altitude 10° 18:07:14 10° 145° (SE) 2,425 4.3 -12.7°
Maximum altitude 18:11:07 20° 100° (E) 1,841 3.4 -13.3°
Enters shadow 18:12:06 19° 86° (E) 1,885 3.4 -13.5°
